Regional Weather Roundup
Issued by NWS Newport/Morehead, NC

Current Version | Previous Version | Text Only | Print | Product List | Glossary On
Versions: 1 2 3 4 5 6 7 8 9 10 11 12 13 14 15 16 17 18 19 20 21 22 23 24 25 26 27 28 29 30 31 32 33 34 35 36 37 38 39 40 41 42 43 44 45 46 47 48 49 50
000 ASUS42 KMHX 221622 RWRMHX WEATHER ROUNDUP FOR EASTERN NORTH CAROLINA NATIONAL WEATHER SERVICE NEWPORT/MOREHEAD CITY NC 1100 AM EST MON DEC 22 2014 NOTE: "FAIR" INDICATES FEW OR NO CLOUDS BELOW 12,000 FEET WITH NO SIGNIFICANT WEATHER AND/OR OBSTRUCTIONS TO VISIBILITY NCZ015>017-031-032-045>047-102-103-221700- NORTH COAST CITY SKY/WX TMP DP RH WIND PRES REMARKS EDENTON LGT RAIN 47 46 98 N12G17 30.08F ELIZABETH CITY RAIN 52 46 82 NE20 30.08F KITTY HAWK RAIN 52 52 100 N9G18 30.07F MANTEO CLOUDY 53 53 99 NE12 30.05F $$ NCZ045>047-081-094-103-104-221700- CENTRAL COAST CITY SKY/WX TMP DP RH WIND PRES REMARKS FRISCO LGT RAIN 61 61 100 SE16 30.01F FOG SWANQUARTER N/A 50 N/A N/A N8 30.00S $$ NCZ095-097-098-100-101-221700- SOUTHERN COAST CITY SKY/WX TMP DP RH WIND PRES REMARKS BEAUFORT CLOUDY 51 51 100 N10 30.04F CEDAR ISLAND N/A 50 N/A N/A NW16 30.06F JACKSONVILLE CLOUDY 45 43 93 N12 30.07F PINEY ISLAND LGT RAIN N/A N/A N/A MISG 30.04S WILMINGTON CLOUDY 44 43 96 N7 30.07F $$ NCZ011>013-027>030-043-044-078>080-089-090>093-098-221700- COASTAL PLAIN CITY SKY/WX TMP DP RH WIND PRES REMARKS AHOSKIE LGT RAIN 41 39 95 N9 30.13F CLINTON CLOUDY 42 42 99 N6 30.11F ELIZABETHTOWN CLOUDY 43 43 99 N3 30.10S GOLDSBORO NOT AVBL GREENVILLE RAIN 41 41 100 N6 30.13F HAVELOCK CLOUDY 48 46 93 N12 30.06F KENANSVILLE CLOUDY 43 42 96 N9 30.10F KINSTON CLOUDY 43 43 100 N12 30.10F FOG NEW BERN CLOUDY 48 44 86 NW9 30.09F RICHLANDS CLOUDY 45 39 81 N9 30.08F ROCKY MOUNT CLOUDY 40 38 93 N9 30.13F FOG WASHINGTON CLOUDY 43 42 96 NE8 30.09F WHITEVILLE CLOUDY 43 41 92 N7 30.08F $$ AMZ130-135-150-152-154-156-158-170-250-252-270-ANZ085-086-088-633-658-670-221700- MARINE OBSERVATIONS STATION/POSITION TIME TEMP WIND PRES WAVE SWELL AIR SEA DIR/SP/G HT/PER HT/PER (UTC) (F) (DEG/KT/KT) (MB) (FT/S) (FT/S) CHESAPEAKE LIGHT 1600 48 60/ 29/ 31 1020.5 64 E VA BEACH 1600 58 54 80/ 16/ 21 1019.3 6/ 6 2/10 DUCK 1600 50 46 40/ 27/ 32 1017.7 2 E DUCK 1600 46 N/A 7/ 6 10 NE DUCK 1600 51 N/A 7/ 6 OREGON INLET 1600 55 48 80/ 6/ 8 1017.4 13E OREGON INLT 1600 52 N/A 7/ 6 HATTERAS CG 1600 61 51 120/ 11/ 15 1016.5 DIAMOND BUOY 1600 69 1016.2 10/ 7 17 S OCRACOKE NOT AVBL CAPE LOOKOUT 1600 52 350/ 10/ 12 1016.5 BEAUFORT LAB 1600 50 51 360/ 12/ 15 1015.9 30 SE NEW RIVER 1600 54 60 340/ 17/ 19 1016.8 7/ 8 5/ 8 5 SE WRIGHTSVLE NOT AVBL 225 S CAPE HAT 1531 70 72 230/ 8/ 10 1019.1 4/ 7 3/ 7 41 SE CHARLESTON 1600 60 73 10/ 14/ 16 1016.8 5/ 7 3/ 9 $$

USA.gov is the U.S. government's official web portal to all federal, state and local government web resources and services.